Location: Agadir Irigdalene
(31.2522°N, 8.7797°W)
Time: 16:18:45
(UTC+00:00)

Cosmos 1437 Rocket - Pass Details

Date: 01 December 2020
Orbit: 504 x 563 km, 81.2° (Epoch: 25 January)

Event Time Altitude Azimuth Distance (km) Brightness Sun altitude
Rises 19:42:52 0° 206° (SSW) 2,708 6.8 -27.4°
Reaches altitude 10° 19:45:12 10° 216° (SW) 1,810 6.0 -27.9°
Maximum altitude 19:48:49 32° 281° (W) 931 4.4 -28.6°
Enters shadow 19:48:59 32° 287° (WNW) 934 4.4 -28.7°
